Weather History for Rotterdam, Netherlands

Change the Weather History Date:

Monday, February 18, 2013

  Actual Average Record
Temperature  
Mean Temperature 36 °F -  
Max Temperature 46 °F 46 °F 51 °F (1998)
Min Temperature 27 °F 35 °F 21 °F (2003)
Degree Days  
Heating Degree Days 28    
Moisture  
Dew Point 32 °F    
Average Humidity 86    
Maximum Humidity 100    
Minimum Humidity 46    
Precipitation  
Precipitation 0.00 in - - ()
Sea Level Pressure  
Sea Level Pressure 30.17 in    
Wind  
Wind Speed 3 mph ()    
Max Wind Speed 6 mph    
Max Gust Speed -    
Visibility 3.9 miles    
Events Fog    
Averages and records for this station are not official NWS values.
T = Trace of Precipitation, MM = Missing Value Source: Averaged Metar Reports

Daily Weather History Graph

Daily Weather History Graph

Search for Another Location

Airport:

Trip Planner

Search our weather history database for the weather conditions in past years. The results will help you decide how hot, cold, wet, or windy it might be!

Date:

Astronomy

Feb. 18, 2013 Rise Set
Actual Time 7:50 AM CET 6:02 PM CET
Civil Twilight 7:16 AM CET 6:36 PM CET
Nautical Twilight 6:37 AM CET 7:16 PM CET
Astronomical Twilight 5:58 AM CET 7:55 PM CET
Moon 11:15 AM CET (2/18) 2:36 AM CET (2/18)
Length of Visible Light 11h 20m
Length of Day
10h 11m
First Quarter, 56% of the Moon is Illuminated
Feb 18
First Quarter
Feb 25
Full
Mar 4
Last Quarter
Mar 11
New
Mar 19
First Quarter

Hourly Weather History & Observations

Time (CET) Temp. Windchill Dew Point Humidity Pressure Visibility Wind Dir Wind Speed Gust Speed Precip Events Conditions
12:25 AM 32.0 °F - 30.2 °F 93% 30.18 in 3.1 mi NE 2.3 mph - N/A   Mist
12:55 AM 30.2 °F - 30.2 °F 100% 30.18 in 3.1 mi NE 2.3 mph - N/A   Overcast
1:00 AM 31 °F - 31 °F 100% 30.21 in 3 mi NE 2.2 mph - -   Mist
1:25 AM 32.0 °F - 32.0 °F 100% 30.18 in 3.7 mi NE 2.3 mph - N/A   Overcast
1:55 AM 32.0 °F - 30.2 °F 93% 30.18 in 3.7 mi Variable 1.2 mph - N/A   Mostly Cloudy
2:25 AM 32.0 °F - 30.2 °F 93% 30.18 in 3.7 mi ENE 2.3 mph - N/A   Overcast
2:55 AM 32.0 °F 28.7 °F 32.0 °F 100% 30.18 in 3.7 mi NE 3.5 mph - N/A   Overcast
3:25 AM 33.8 °F 30.8 °F 32.0 °F 93% 30.18 in 3.7 mi NE 3.5 mph - N/A   Overcast
3:55 AM 33.8 °F 30.8 °F 32.0 °F 93% 30.18 in 3.7 mi ENE 3.5 mph - N/A   Overcast
4:00 AM 34 °F - 32 °F 90% 30.19 in 4 mi ENE 2.2 mph - -   Mist
4:25 AM 33.8 °F 30.8 °F 32.0 °F 93% 30.18 in 3.7 mi ENE 3.5 mph - N/A   Overcast
4:55 AM 33.8 °F 30.8 °F 32.0 °F 93% 30.18 in 3.1 mi East 3.5 mph - N/A   Scattered Clouds
5:25 AM 30.2 °F 26.7 °F 30.2 °F 100% 30.18 in - ENE 3.5 mph - N/A   Mist
5:55 AM 30.2 °F 25.4 °F 28.4 °F 93% 30.18 in - ENE 4.6 mph - N/A   Mostly Cloudy
6:25 AM 32.0 °F 28.7 °F 32.0 °F 100% 30.18 in - ENE 3.5 mph - N/A   Mostly Cloudy
6:55 AM 28.4 °F 23.3 °F 28.4 °F 100% 30.18 in 1.7 mi ENE 4.6 mph - N/A   Mist
7:00 AM 31 °F - 31 °F 97% 30.18 in 2 mi ENE 4.5 mph - -   Mist
7:25 AM 30.2 °F 25.4 °F 30.2 °F 100% 30.15 in 1.7 mi ENE 4.6 mph - N/A   Mist
7:55 AM 28.4 °F 24.6 °F 28.4 °F 100% 30.18 in 1.3 mi ENE 3.5 mph - N/A   Mist
8:25 AM 28.4 °F 23.3 °F 28.4 °F 100% 30.18 in 1.1 mi ENE 4.6 mph - N/A   Mist
8:55 AM 28.4 °F 24.6 °F 28.4 °F 100% 30.18 in 1.2 mi East 3.5 mph - N/A   Mist
9:25 AM 33.8 °F 30.8 °F 32.0 °F 93% 30.18 in 1.9 mi East 3.5 mph - N/A   Mist
9:55 AM 35.6 °F - 33.8 °F 93% 30.18 in - Variable 2.3 mph - N/A   Mist
10:00 AM 36 °F - 34 °F 88% 30.20 in 3 mi East 2.2 mph - -   Mist
10:25 AM 37.4 °F - 33.8 °F 87% 30.18 in 3.1 mi Variable 2.3 mph - N/A   Mist
10:55 AM 41.0 °F - 35.6 °F 81% 30.18 in 5.0 mi Variable 1.2 mph - N/A   Unknown
11:25 AM 42.8 °F - 35.6 °F 76% 30.18 in 6.2 mi Variable 1.2 mph - N/A   Unknown
11:55 AM 42.8 °F 40.1 °F 33.8 °F 70% 30.18 in 6.2 mi ESE 4.6 mph - N/A   Unknown
12:25 PM 44.6 °F 42.2 °F 32.0 °F 61% 30.18 in 6.2 mi East 4.6 mph - N/A   Unknown
12:55 PM 44.6 °F 41.4 °F 32.0 °F 61% 30.18 in 6.2 mi South 5.8 mph - N/A   Partly Cloudy
1:00 PM 45 °F - 31 °F 46% 30.19 in 16 mi SSE 4.5 mph - -   Partly Cloudy
1:25 PM 44.6 °F 42.2 °F 30.2 °F 57% 30.18 in 6.2 mi SE 4.6 mph - N/A   Unknown
1:55 PM 46.4 °F 44.3 °F 32.0 °F 57% 30.15 in 6.2 mi South 4.6 mph - N/A   Unknown
2:25 PM 46.4 °F 43.5 °F 32.0 °F 57% 30.15 in 6.2 mi SW 5.8 mph - N/A   Partly Cloudy
2:55 PM 46.4 °F 45.2 °F 32.0 °F 57% 30.15 in 6.2 mi South 3.5 mph - N/A   Unknown
3:25 PM 44.6 °F 43.1 °F 30.2 °F 57% 30.15 in 6.2 mi WSW 3.5 mph - N/A   Unknown
3:55 PM 44.6 °F - 30.2 °F 57% 30.15 in 6.2 mi Variable 2.3 mph - N/A   Unknown
4:00 PM 45 °F - 32 °F 49% 30.16 in 22 mi NNW 2.2 mph - -   Scattered Clouds
4:25 PM 44.6 °F - 30.2 °F 57% 30.15 in 6.2 mi Variable 2.3 mph - N/A   Unknown
4:55 PM 41.0 °F 37.1 °F 35.6 °F 81% 30.15 in 6.2 mi North 5.8 mph - N/A   Unknown
5:25 PM 41.0 °F 37.1 °F 35.6 °F 81% 30.15 in 5.0 mi North 5.8 mph - N/A   Unknown
5:55 PM 39.2 °F 37.0 °F 33.8 °F 81% 30.15 in 4.3 mi North 3.5 mph - N/A   Unknown
6:25 PM 35.6 °F 32.8 °F 33.8 °F 93% 30.15 in 3.7 mi NNW 3.5 mph - N/A   Unknown
6:55 PM 35.6 °F 32.8 °F 33.8 °F 93% 30.15 in 3.1 mi NNW 3.5 mph - N/A   Mist
7:00 PM 36 °F - 33 °F 87% 30.16 in 3 mi NNW 4.5 mph - -   Mist
7:25 PM 35.6 °F 32.8 °F 33.8 °F 93% 30.15 in - NNW 3.5 mph - N/A   Mist
7:55 PM 33.8 °F - 33.8 °F 100% 30.15 in - NW 2.3 mph - N/A   Mist
8:25 PM 33.8 °F - 33.8 °F 100% 30.15 in 1.9 mi WNW 2.3 mph - N/A   Mist
8:55 PM 33.8 °F - 33.8 °F 100% 30.15 in 1.9 mi NW 2.3 mph - N/A   Mist
9:25 PM 33.8 °F - 32.0 °F 93% 30.15 in - NNW 1.2 mph - N/A   Mist
9:55 PM 32.0 °F - 32.0 °F 100% 30.15 in - North 1.2 mph - N/A   Mist
10:00 PM 33 °F - 33 °F 97% 30.15 in 2 mi Calm Calm - -   Mist
10:25 PM 33.8 °F - 32.0 °F 93% 30.15 in 1.7 mi NNW 1.2 mph - N/A   Mist
10:55 PM 32.0 °F - 32.0 °F 100% 30.15 in 1.5 mi Calm Calm - N/A   Mist
11:25 PM 30.2 °F - 30.2 °F 100% 30.12 in 1.1 mi NW 2.3 mph - N/A   Mist
11:55 PM 30.2 °F - 28.4 °F 93% 30.15 in 0.3 mi WNW 2.3 mph - N/A Fog Light Freezing Fog